DELTA 1 DEB, 21327

Orbit data source: Space-Track

DELTA 1 DEB, 21327 is space debris in SSO originally from a launch on Thu, 12 Jun 1975 UTC launched from the Air Force Western Test Range (AFWTR). Debris objects in space refer to the collection of defunct objects orbiting the Earth. Examples of debris include non-operational satellites, rocket bodies, and fragments generated from explosions, collisions, or faulty payload assembly.

Loading next visibility...
Identifier
21327, 1975-052AV
Orbit
SSO
Country
Flag of USUS
Related business
Manufacturer
Unknown
Mission
Spacecraft
Bus & Motor
Unknown
Mass
Unknown
Launch date (UTC)
1975-06-12 (51 years ago)
Launch vehicle
Unknown
Launch site
Air Force Western Test Range (AFWTR)
Object type
Payload
Rocket body
Debris
Shape & HBR
Unknown shape, 0.2 m
Radar Cross Section
Medium (>0.1 m² and <1 m²)

Expand to show TLE details & history
Last TLE update: 2 days ago

TLE from 2 days ago
0 DELTA 1 DEB
1 21327U 75052AV  26171.46800487  .00000159  00000-0  63438-3 0  9990
2 21327  99.7445  73.9893 0279770 244.2935 297.7536 12.90027314651588
Epoch: 2026-06-20T11:13Z
TLE epoch observation values (Epoch: 2026-06-20T11:13:55.620Z)
Latitude
0.71852°
Longitude
176.94813°
Altitude
1,208.763 km
Speed
7.295 km/s
True Right ascension
16h 56m 26s
True Declination
0° 42' 52"
Sunlit
Object was in full shadow at epoch
Visualization orbit readout
Latitude
Unknown
Longitude
Unknown
Altitude
Unknown
Speed
Unknown
Apparent Right ascension
Unknown
Apparent Declination
Unknown
Sunlit
N/A
Visualization observer readout
Local Sidereal Time
23:20:23
Azimuth
Unknown
Elevation
Unknown
Doppler factor
Unknown
Orbital elements
Apogee altitude
1,513.574 km
Perigee altitude
1,084.019 km
Semi-major axis
7,676.934 km
Eccentricity
0.02798
Inclination
99.7445°
RAAN
73.9893°
Arg. of periapsis
244.2935°
True anomaly
294.87077°
Mean anomaly
297.7536°
Eccentric anomaly
296.31677°
Mean motion
3.22672 °/min
Orbital period
111.57 mins
BSTAR
0.00063438
Loading maneuver chart data...
Computing Atmospheric mass density...
Loading historical data...
Loading historical data...
Loading historical data...
Loading historical data...
Loading historical data...
Loading historical data...
Loading historical data...

Documentation

Showing up to 5 results
|